Location: Izdebno
(52.6670°N, 16.2170°E)
Time: 09:10:30
(UTC+02:00)

A-11 Canister half - Pass Details

Date: 02 March 2024
Orbit: 1513 x 1686 km, 47.2° (Epoch: 24 April)

Event Time Altitude Azimuth Distance (km) Brightness Sun altitude
Exits shadow 01:28:39 37° 106° (ESE) 2,396 9.9 -41.5°
Drops below altitude 10° 01:34:22 10° 86° (E) 3,895 11.4 -41.1°
Sets 01:37:33 0° 82° (E) 4,863 12.0 -40.8°
